Regional Weather Roundup
Issued by NWS

Home | Current Version | Previous Version | Graphics & Text | Print | Product List | Glossary On
Versions: 1 2 3 4 5 6 7 8 9 10 11 12 13 14 15 16 17 18 19 20 21 22 23 24 25 26 27 28 29 30 31 32 33 34 35 36 37 38 39 40 41 42 43 44 45 46 47 48 49 50
000
ASUS43 KMKX 070021
RWRWI

WISCONSIN REGIONAL WEATHER ROUNDUP
NATIONAL WEATHER SERVICE MILWAUKEE/SULLIVAN WI
700 PM CDT FRI MAY 06 2016

NOTE: "FAIR" INDICATES FEW OR NO CLOUDS BELOW 12,000 FEET WITH NO
SIGNIFICANT WEATHER AND/OR OBSTRUCTIONS TO VISIBILITY.

WIZ001-002-006>008-014>016-023>028-070100-
NORTHWEST WISCONSIN

CITY           SKY/WX    TMP DP  RH WIND       PRES   REMARKS
SUPERIOR ARPT  CLOUDY    77  54  45 NW16      29.65R
6HR MIN TEMP:  67; 6HR MAX TEMP:  94; 6HR PCP:  0.11;

ASHLAND        CLOUDY    66  57  72 S13       29.64F
6HR MIN TEMP:  65; 6HR MAX TEMP:  93;

HAYWARD        TSTM      69  54  58 N12       29.70R
6HR MIN TEMP:  74; 6HR MAX TEMP:  90;

SIREN          MOSUNNY   83  47  28 NW6       29.65R HX  81
6HR MIN TEMP:  83; 6HR MAX TEMP:  90;

CUMBERLAND     CLOUDY    82  45  26 SW13      29.64F HX  80
RICE LAKE      CLOUDY    86  42  20 SW9       29.66F HX  83
6HR MIN TEMP:  86; 6HR MAX TEMP:  89;

CHETEK         CLOUDY    85  48  27 W5        29.64F HX  83
6HR MIN TEMP:  85; 6HR MAX TEMP:  88;

LADYSMITH      CLOUDY    83  45  26 W10G17    29.67F HX  81
6HR MIN TEMP:  83; 6HR MAX TEMP:  87;

EAU CLAIRE     SUNNY     86  41  20 SW12G22   29.65F HX  83
6HR MIN TEMP:  86; 6HR MAX TEMP:  90;

MENOMONIE      MOSUNNY   87  42  20 SW10G18   29.64F HX  84
NEW RICHMOND   SUNNY     83  51  32 SW3       29.64F HX  81
6HR MIN TEMP:  82; 6HR MAX TEMP:  88;

OSCEOLA        SUNNY     88  49  26 W10G17    29.66S HX  85
$$

WIZ003>005-009-010-017-018-070100-
NORTH CENTRAL WISCONSIN

CITY           SKY/WX    TMP DP  RH WIND       PRES   REMARKS
MANITOWISH WTR TSTM      63  55  74 N14G24    29.71R
6HR MIN TEMP:  63; 6HR MAX TEMP:  87; 6HR PCP:  0.37;

ARBOR VITAE    CLOUDY    82  42  24 W8        29.67R HX  80
6HR MIN TEMP:  82; 6HR MAX TEMP:  89;

WOODRUFF       CLOUDY    82  42  24 W8        29.67R HX  80
6HR MIN TEMP:  82; 6HR MAX TEMP:  89;

RHINELANDER    CLOUDY    82  42  24 W15G24    29.67F HX  80
6HR MIN TEMP:  82; 6HR MAX TEMP:  89;

EAGLE RIVER      N/A     76  39  26 SW5       29.65S
LAND O LAKES   CLOUDY    81  36  19 W5        29.65S
6HR MIN TEMP:  81; 6HR MAX TEMP:  89;

PHILLIPS       MOSUNNY   81  48  31 SW8       29.67R HX  80
6HR MIN TEMP:  81; 6HR MAX TEMP:  87;

TOMAHAWK       CLOUDY    81  44  26 SW6       29.68S HX  80
6HR MIN TEMP:  81; 6HR MAX TEMP:  87;

MEDFORD        PTSUNNY   81  47  31 SW10G18   29.68F HX  80
6HR MIN TEMP:  81; 6HR MAX TEMP:  85;

MERRILL        CLOUDY    82  47  29 W10G18    29.68S HX  81
$$

WIZ029-030-035-036-043>047-070100-
CENTRAL WISCONSIN

CITY           SKY/WX    TMP DP  RH WIND       PRES   REMARKS
WAUSAU         CLOUDY    85  44  23 W13G21    29.66F HX  82
6HR MIN TEMP:  84; 6HR MAX TEMP:  89;

MOSINEE        SUNNY     81  46  30 SW6       29.71F HX  80
MARSHFIELD     SUNNY     84  43  23 W14       29.69F HX  81
6HR MIN TEMP:  84; 6HR MAX TEMP:  89;

STEVENS POINT  SUNNY     83  42  23 W6        29.70S HX  81
6HR MIN TEMP:  78; 6HR MAX TEMP:  86;

WAUPACA        SUNNY     85  35  16 SW9       29.68F HX  82
6HR MIN TEMP:  81; 6HR MAX TEMP:  91;

WAUTOMA        SUNNY     85  40  20 SW9       29.70F HX  82
6HR MIN TEMP:  81; 6HR MAX TEMP:  89;

WISC RAPIDS    SUNNY     86  35  16 W10       29.70F HX  83
6HR MIN TEMP:  84; 6HR MAX TEMP:  90;

CAMP DOUGLAS   SUNNY     83  45  26 SW10      29.70F HX  81
6HR MIN TEMP:  82; 6HR MAX TEMP:  88;

$$

WIZ011>013-019>022-031-037>040-048>050-070100-
NORTHEAST WISCONSIN

CITY           SKY/WX    TMP DP  RH WIND       PRES   REMARKS
ANTIGO         CLOUDY    77  48  35 W13G18    29.69S
6HR MIN TEMP:  77; 6HR MAX TEMP:  85;

SHAWANO        SUNNY     87  34  15 W9        29.67S HX  83
6HR MIN TEMP:  81; 6HR MAX TEMP:  90;

OCONTO         CLEAR     67  50  55 S8        29.65F
6HR MIN TEMP:  67; 6HR MAX TEMP:  81;

STURGEON BAY   CLEAR     57  39  51 S18G24    29.70F
6HR MIN TEMP:  57; 6HR MAX TEMP:  70;

GREEN BAY      CLEAR     81  50  33 S9        29.67F HX  80
6HR MIN TEMP:  80; 6HR MAX TEMP:  86;

MANITOWOC      CLEAR     55  40  56 MISG      29.73F
6HR MIN TEMP:  55; 6HR MAX TEMP:  68;

APPLETON       MOSUNNY   79  46  31 VRB5      29.68F
CLINTONVILLE   SUNNY     82  36  18 W7        29.67F HX  80
OSHKOSH        SUNNY     83  43  24 SW5       29.69F HX  81
6HR MIN TEMP:  77; 6HR MAX TEMP:  86;

$$

WIZ032>034-041-042-053>061-070100-
SOUTHWEST WISCONSIN

CITY           SKY/WX    TMP DP  RH WIND       PRES   REMARKS
LA CROSSE      SUNNY     87  42  20 W9        29.68F HX  84
6HR MIN TEMP:  86; 6HR MAX TEMP:  91;

SPARTA         SUNNY     86  40  19 SW5       29.70F HX  83
6HR MIN TEMP:  82; 6HR MAX TEMP:  90;

VIROQUA        SUNNY     83  35  17 SW10      29.75F HX  81
6HR MIN TEMP:  82; 6HR MAX TEMP:  88;

BOSCOBEL       SUNNY     87  35  15 W8G17     29.74F HX  84
6HR MIN TEMP:  83; 6HR MAX TEMP:  91;

PRAIRIE DU CHI SUNNY     85  32  15 SW9       29.74F HX  82
6HR MIN TEMP:  84; 6HR MAX TEMP:  89;

PLATTEVILLE    SUNNY     84  41  22 W10G16    29.78S HX  81
6HR MIN TEMP:  78; 6HR MAX TEMP:  87;

$$

WIZ056-057-062-063-064-067-068-070100-
SOUTH CENTRAL WISCONSIN

CITY           SKY/WX    TMP DP  RH WIND       PRES   REMARKS
REEDSBURG      SUNNY     82  43  25 SW8       29.72F HX  80
6HR MIN TEMP:  78; 6HR MAX TEMP:  86;

BARABOO/DELLS  SUNNY     83  34  16 SW7       29.73F HX  81
6HR MIN TEMP:  79; 6HR MAX TEMP:  88;

LONE ROCK      SUNNY     85  38  18 W14G22    29.74F HX  82
6HR MIN TEMP:  80; 6HR MAX TEMP:  88;

MINERAL POINT  SUNNY     82  36  18 W8        29.77F HX  80
MADISON        MOSUNNY   84  40  21 W8        29.74F HX  81
6HR MIN TEMP:  75; 6HR MAX TEMP:  86;

MIDDLETON      SUNNY     81  40  23 W7        29.75F
6HR MIN TEMP:  79; 6HR MAX TEMP:  85;

WATERTOWN      CLEAR     78  53  41 SW7       29.73F
6HR MIN TEMP:  77; 6HR MAX TEMP:  84;

MONROE         SUNNY     81  41  24 W13       29.78F
JANESVILLE     SUNNY     82  46  28 W8        29.76F HX  81
$$

WIZ051-052-058>065-066-070>072-070100-
SOUTHEAST WISCONSIN

CITY           SKY/WX    TMP DP  RH WIND       PRES   REMARKS
MILWAUKEE      PTCLDY    83  44  25 W9        29.74F HX  81
6HR MIN TEMP:  76; 6HR MAX TEMP:  85;

WAUKESHA       NOT AVBL
MILWAUKEE/TIMM NOT AVBL
RACINE         CLEAR     82  44  26 W6        29.76F HX  80
6HR MIN TEMP:  69; 6HR MAX TEMP:  83;

BURLINGTON     CLEAR     79  46  31 W7        29.76F
6HR MIN TEMP:  76; 6HR MAX TEMP:  83;

KENOSHA        CLEAR     80  48  32 W10       29.76F
6HR MIN TEMP:  76; 6HR MAX TEMP:  84;

FOND DU LAC    CLEAR     84  46  26 SW8       29.70F HX  82
6HR MIN TEMP:  80; 6HR MAX TEMP:  86;

SHEBOYGAN      CLEAR     64  44  48 S6        29.73F
6HR MIN TEMP:  63; 6HR MAX TEMP:  79;

WEST BEND      CLEAR     79  43  27 SW8       29.73F
JUNEAU         CLEAR     80  50  35 SW8       29.74F
6HR MIN TEMP:  76; 6HR MAX TEMP:  83;

$$

LSZ147-162-070100-
LAKE SUPERIOR

STATION/POSITION TIME  TEMP    WIND        PRES    WAVE
                       AIR SEA DIR/SP/G            HT/PER
                 (UTC) (F)     (DEG/KT/KT) (MB)    (FT/S)
W MID LAKE BUOY  2350   54 37  230/ 17/ 23 1002.2R   2/ 4
DEVILS ISLAND    0000   69     250/ 15/ 16 1002.3R
PORT WING        2130   67     290/ 12/ 21 1003.0
SAXON HARBOR     2300          260/  2/ 15 1003.7R
$$

LMZ867-665-643>646-070100-
LAKE MICHIGAN

STATION/POSITION TIME  TEMP    WIND        PRES    WAVE
                       AIR SEA DIR/SP/G            HT/PER
                 (UTC) (F)     (DEG/KT/KT) (MB)    (FT/S)
CHAMBERS ISLAND  2300   65     150/  9/ 17 1005.1
N MID LAKE BUOY  2350   46 39  190/ 17/ 19 1005.6F   3/ 4
NORTHPORT PIER   23C1F1C2F2C3F3C4F4C5F5C6F6C7F7C8M1C9M2Ca!



USA.gov is the U.S. government's official web portal to all federal, state and local government web resources and services.